Regional Weather Roundup
Issued by NWS

Home | Current Version | Previous Version | Text Only | Print | Product List | Glossary On
Versions: 1 2 3 4 5 6 7 8 9 10 11 12 13 14 15 16 17 18 19 20 21 22 23 24 25 26 27 28 29 30 31 32 33 34 35 36 37 38 39 40 41 42 43 44 45 46 47 48 49 50
312
ASUS43 KOAX 292210
RWRNE

WEATHER ROUNDUP FOR NEBRASKA
NATIONAL WEATHER SERVICE OMAHA NE
500 PM CDT MON MAY 29 2017

NOTES: SATELLITE DATA IS BEING USED TO AUGMENT CLOUD COVER ABOVE
       12000 FEET.
       "FAIR" INDICATES FEW OR NO CLOUDS BELOW 12,000 FEET WITH NO
       SIGNIFICANT WEATHER AND/OR OBSTRUCTIONS TO VISIBILITY.

  * THESE STATIONS DO NOT REPORT WEATHER SUCH AS RAIN...SNOW OR FOG.

NEZ001>004-019>022-054>056-292300-
NEBRASKA PANHANDLE

CITY           SKY/WX    TMP DP  RH WIND       PRES   REMARKS
SCOTTSBLUFF    SUNNY     73  34  23 NW20G25   30.14F
ALLIANCE       SUNNY     70  34  26 NW16      30.12S
CHADRON        SUNNY     69  43  38 NE7       30.11F
GORDON         FAIR      68  36  31 NW9G18    30.11F
KIMBALL        PTSUNNY   67  35  31 N9G17     30.19S
SIDNEY         PTSUNNY   71  40  32 NW14      30.16F
$$

NEZ057>060-069>072-079>082-292300-
SOUTHWEST NEBRASKA

CITY           SKY/WX    TMP DP  RH WIND       PRES   REMARKS
NORTH PLATTE   SUNNY     73  34  23 N14G23    30.09F
IMPERIAL       PTSUNNY   73  38  27 NW12G18   30.11F
LEXINGTON      SUNNY     76  32  20 NW14      30.08F
MCCOOK         MOSUNNY   78  38  23 N16G24    30.08F
OGALLALA       MOSUNNY   75  34  22 NW13G23   30.11F
$$

NEZ005>010-023>029-035>040-094-292300-
NORTH CENTRAL NEBRASKA

CITY           SKY/WX    TMP DP  RH WIND       PRES   REMARKS
VALENTINE      MOSUNNY   70  34  26 NW14      30.08F
AINSWORTH      PTSUNNY   66  38  34 NW13G20   30.09F
BROKEN BOW     SUNNY     73  33  23 NW20G25   30.08F
O`NEILL        PTSUNNY   66  33  29 NW21      30.07S
ORD            MOSUNNY   71  36  27 NW18G29   30.06F
THEDFORD       MOSUNNY   71  35  26 NW17G24   30.11S
$$

NEZ041-046>049-061>064-073>077-083>087-292300-
SOUTH CENTRAL NEBRASKA

CITY           SKY/WX    TMP DP  RH WIND       PRES   REMARKS
GRAND ISLAND   MOSUNNY   73  38  27 NW15G29   30.07S
AURORA         MOSUNNY   73  33  23 N10       30.06S
HASTINGS       MOSUNNY   73  36  25 NW12G23   30.07S
HEBRON         MOSUNNY   76  36  23 CALM      30.03S
HOLDREGE       SUNNY     74  32  21 NW14      30.07F
KEARNEY *      MOSUNNY   73  36  25 NW12      30.08S
YORK           SUNNY     73  32  21 NW14G25   30.05S
$$

NEZ011>018-030>034-042>045-292300-
NORTHEAST NEBRASKA

CITY           SKY/WX    TMP DP  RH WIND       PRES   REMARKS
NORFOLK        MOSUNNY   69  37  30 W22G28    30.03S
ALBION         MOSUNNY   71  35  27 NW18G28   30.06F
BLAIR          MOSUNNY   73  37  27 NW15G21   30.00S
FREMONT        MOSUNNY   73  39  28 NW22G28   30.02S
TEKAMAH        MOSUNNY   74  38  27 NW21G30   29.99S
WAYNE          CLOUDY    70  43  36 NW21      30.03R
$$

NEZ050>053-065>068-078-088>093-292300-
SOUTHEAST NEBRASKA

CITY           SKY/WX    TMP DP  RH WIND       PRES   REMARKS
LINCOLN        MOSUNNY   77  36  22 N24G30    30.03S
OMAHA EPPLEY   MOSUNNY   75  37  25 NW16G30   29.99S
BEATRICE       MOSUNNY   77  42  28 NW21      30.02S
NEBRASKA CITY  MOSUNNY   77  27  16 NW16G26   30.00S
PLATTSMOUTH    MOSUNNY   77  31  18 W28G35    30.00S
$$

NEZ044-045-051>053-067-292300-
OMAHA AREA

CITY           SKY/WX    TMP DP  RH WIND       PRES   REMARKS
OMAHA EPPLEY   MOSUNNY   75  37  25 NW16G30   29.99S
BLAIR          MOSUNNY   73  37  27 NW15G21   30.00S
FREMONT        MOSUNNY   73  39  28 NW22G28   30.02S
MILLARD        MOSUNNY   75  40  28 NW18G30   30.01R
OFFUTT AFB     SUNNY     75  38  27 NW16G25   29.99R
PLATTSMOUTH    MOSUNNY   77  31  18 W28G35    30.00S
WAHOO          FAIR      76  32  20 NW16G28   30.02S
$$




USA.gov is the U.S. government's official web portal to all federal, state and local government web resources and services.